H1 CPF 2 NER 2022 12 29 9 363 01 glonass134 H2 1407501 9134 40315 2022 12 29 0 0 0 2023 1 1 23 45 0 900 1 1 0 0 0 1 H9 10 0 59942 0.00000 0 18086300.361 -17875680.123 1435731.724 10 0 59942 900.00000 0 18008779.141 -17923033.045 -1754957.062 10 0 59942 1800.00000 0 17670297.949 -17669868.460 -4911389.739 10 0 59942 2700.00000 0 17117289.805 -17088763.066 -7971949.661 10 0 59942 3600.00000 0 16402340.744 -16163836.959 -10876897.288 10 0 59942 4500.00000 0 15581808.342 -14891643.444 -13569554.524 10 0 59942 5400.00000 0 14713297.363 -13281542.068 -15997426.001 10 0 59942 6300.00000 0 13853101.536 -11355538.240 -18113233.885 10 0 59942 7200.00000 0 13053721.554 -9147595.956 -19875844.874 10 0 59942 8100.00000 0 12361565.639 -6702452.800 -21251070.910 10 0 59942 9000.00000 0 11814930.551 -4073987.553 -22212328.150 10 0 59942 9900.00000 0 11442348.311 -1323209.718 -22741142.001 10 0 59942 10800.00000 0 11261367.687 1484044.229 -22827489.614 10 0 59942 11700.00000 0 11277820.523 4279611.146 -22469974.635 10 0 59942 12600.00000 0 11485602.049 6995593.614 -21675832.483 10 0 59942 13500.00000 0 11866972.442 9566936.881 -20460767.777 10 0 59942 14400.00000 0 12393364.868 11933884.089 -18848628.665 10 0 59942 15300.00000 0 13026664.148 14044209.104 -16870925.794 10 0 59942 16200.00000 0 13720900.666 15855136.157 -14566206.403 10 0 59942 17100.00000 0 14424287.158 17334868.836 -11979296.472 10 0 59942 18000.00000 0 15081512.070 18463667.371 -9160426.166 10 0 59942 18900.00000 0 15636192.896 19234432.095 -6164255.677 10 0 59942 19800.00000 0 16033386.648 19652771.308 -3048820.160 10 0 59942 20700.00000 0 16222052.526 19736553.009 125586.121 10 0 59942 21600.00000 0 16157364.135 19514961.095 3297565.591 10 0 59942 22500.00000 0 15802774.984 19027096.824 6405791.607 10 0 59942 23400.00000 0 15131751.296 18320184.788 9390179.455 10 0 59942 24300.00000 0 14129099.886 17447458.651 12193032.694 10 0 59942 25200.00000 0 12791835.450 16465814.832 14760143.995 10 0 59942 26100.00000 0 11129550.449 15433331.596 17041830.409 10 0 59942 27000.00000 0 9164270.985 14406756.432 18993884.332 10 0 59942 27900.00000 0 6929802.924 13439065.805 20578422.870 10 0 59942 28800.00000 0 4470593.329 12577198.463 21764619.910 10 0 59942 29700.00000 0 1840151.949 11860056.480 22529307.264 10 0 59942 30600.00000 0 -900904.498 11316857.409 22857433.257 10 0 59942 31500.00000 0 -3687106.752 10965906.792 22742369.433 10 0 59942 32400.00000 0 -6450595.235 10813843.199 22186058.505 10 0 59942 33300.00000 0 -9123690.047 10855388.693 21198999.291 10 0 59942 34200.00000 0 -11641463.589 11073616.807 19800067.155 10 0 59942 35100.00000 0 -13944209.854 11440728.617 18016171.466 10 0 59942 36000.00000 0 -15979707.904 11919306.074 15881754.617 10 0 59942 36900.00000 0 -17705184.735 12463991.361 13438140.437 10 0 59942 37800.00000 0 -19088894.705 13023522.562 10732743.028 10 0 59942 38700.00000 0 -20111248.253 13543040.120 7818150.229 10 0 59942 39600.00000 0 -20765441.245 13966566.300 4751099.096 10 0 59942 40500.00000 0 -21057557.440 14239551.676 1591363.449 10 0 59942 41400.00000 0 -21006139.047 14311379.083 -1599424.054 10 0 59942 42300.00000 0 -20641243.287 14137716.759 -4758990.858 10 0 59942 43200.00000 0 -20003025.274 13682618.440 -7825658.905 10 0 59942 44100.00000 0 -19139908.209 12920278.942 -10739568.294 10 0 59942 45000.00000 0 -18106419.844 11836368.636 -13443864.135 10 0 59942 45900.00000 0 -16960788.710 10428888.485 -15885821.513 10 0 59942 46800.00000 0 -15762403.782 8708508.215 -18017885.033 10 0 59942 47700.00000 0 -14569246.897 6698372.703 -19798601.538 10 0 59942 48600.00000 0 -13435407.874 4433384.560 -21193427.354 10 0 59942 49500.00000 0 -12408788.156 1958993.405 -22175394.474 10 0 59942 50400.00000 0 -11529090.035 -670456.756 -22725623.314 10 0 59942 51300.00000 0 -10826175.657 -3393752.109 -22833673.267 10 0 59942 52200.00000 0 -10318863.649 -6145120.415 -22497725.681 10 0 59942 53100.00000 0 -10014212.228 -8856732.284 -21724597.383 10 0 59942 54000.00000 0 -9907316.704 -11461288.228 -20529586.183 10 0 59942 54900.00000 0 -9981627.476 -13894584.360 -18936152.992 10 0 59942 55800.00000 0 -10209772.831 -16097950.985 -16975448.134 10 0 59942 56700.00000 0 -10554849.761 -18020464.284 -14685692.223 10 0 59942 57600.00000 0 -10972126.786 -19620841.066 -12111424.404 10 0 59942 58500.00000 0 -11411085.923 -20868939.999 -9302633.108 10 0 59942 59400.00000 0 -11817717.158 -21746809.256 -6313786.328 10 0 59942 60300.00000 0 -12136968.712 -22249239.365 -3202780.035 10 0 59942 61200.00000 0 -12315250.273 -22383800.375 -29824.799 10 0 59942 62100.00000 0 -12302884.446 -22170363.732 3143708.562 10 0 59942 63000.00000 0 -12056404.090 -21640130.241 6256462.841 10 0 59942 63900.00000 0 -11540599.741 -20834205.624 9248266.079 10 0 59942 64800.00000 0 -10730231.659 -19801783.554 12061279.585 10 0 59942 65700.00000 0 -9611334.861 -18598011.905 14641101.426 10 0 59942 66600.00000 0 -8182062.184 -17281630.744 16937805.286 10 0 59942 67500.00000 0 -6453029.163 -15912479.777 18906895.917 10 0 59942 68400.00000 0 -4447144.828 -14548978.201 20510163.767 10 0 59942 69300.00000 0 -2198933.394 -13245681.065 21716423.095 10 0 59942 70200.00000 0 246627.444 -12051013.189 22502119.756 10 0 59942 71100.00000 0 2835706.202 -11005274.555 22851797.003 10 0 59942 72000.00000 0 5507591.693 -10139000.294 22758409.813 10 0 59942 72900.00000 0 8196962.402 -9471744.008 22223480.756 10 0 59942 73800.00000 0 10836359.454 -9011336.061 21257093.010 10 0 59942 74700.00000 0 13358762.326 -8753649.046 19877718.892 10 0 59942 75600.00000 0 15700161.608 -8682881.669 18111885.255 10 0 59942 76500.00000 0 17802022.312 -8772350.658 15993680.141 10 0 59942 77400.00000 0 19613534.822 -8985758.781 13564108.344 10 0 59942 78300.00000 0 21093558.766 -9278886.623 10870306.769 10 0 59942 79200.00000 0 22212177.241 -9601637.260 7964633.638 10 0 59942 80100.00000 0 22951794.747 -9900347.315 4903648.762 10 0 59942 81000.00000 0 23307731.289 -10120265.775 1747004.867 10 0 59942 81900.00000 0 23288286.505 -10208094.065 -1443727.730 10 0 59942 82800.00000 0 22914270.392 -10114477.661 -4606278.667 10 0 59942 83700.00000 0 22218020.381 -9796341.170 -7678911.794 10 0 59942 84600.00000 0 21241946.825 -9218965.294 -10601649.998 10 0 59942 85500.00000 0 20036669.538 -8357715.235 -13317464.459 10 0 59943 0.00000 0 18658825.882 -7199345.320 -15773403.007 10 0 59943 900.00000 0 17168644.101 -5742822.320 -17921635.243 10 0 59943 1800.00000 0 15627388.143 -3999633.310 -19720389.605 10 0 59943 2700.00000 0 14094780.906 -1993562.476 -21134768.066 10 0 59943 3600.00000 0 12626517.467 240052.194 -22137419.270 10 0 59943 4500.00000 0 11271972.793 2655551.231 -22709059.017 10 0 59943 5400.00000 0 10072200.197 5198622.655 -22838828.874 10 0 59943 6300.00000 0 9058303.632 7808337.109 -22524487.401 10 0 59943 7200.00000 0 8250250.495 10419463.554 -21772431.919 10 0 59943 8100.00000 0 7656172.524 12964968.740 -20597552.144 10 0 59943 9000.00000 0 7272181.518 15378596.517 -19022920.108 10 0 59943 9900.00000 0 7082704.912 17597420.151 -17079323.857 10 0 59943 10800.00000 0 7061324.484 19564262.612 -14804655.137 10 0 59943 11700.00000 0 7172080.625 21229885.639 -12243163.767 10 0 59943 12600.00000 0 7371185.502 22554858.328 -9444593.732 10 0 59943 13500.00000 0 7609071.727 23511029.545 -6463217.932 10 0 59943 14400.00000 0 7832689.622 24082544.991 -3356790.146 10 0 59943 15300.00000 0 7987956.190 24266368.568 -185434.186 10 0 59943 16200.00000 0 8022252.986 24072288.128 2989508.922 10 0 59943 17100.00000 0 7886868.315 23522406.822 6106654.322 10 0 59943 18000.00000 0 7539281.737 22650142.213 9105745.546 10 0 59943 18900.00000 0 6945195.468 21498775.404 11928804.138 10 0 59943 19800.00000 0 6080227.716 20119610.599 14521235.765 10 0 59943 20700.00000 0 4931196.918 18569821.348 16832872.655 10 0 59943 21600.00000 0 3496942.478 16910072.330 18818933.503 10 0 59943 22500.00000 0 1788646.447 15202014.587 20440883.412 10 0 59943 23400.00000 0 -170359.058 13505757.350 21667177.997 10 0 59943 24300.00000 0 -2345293.045 11877420.493 22473877.844 10 0 59943 25200.00000 0 -4691109.045 10366868.620 22845121.480 10 0 59943 26100.00000 0 -7154114.437 9015720.547 22773447.282 10 0 59943 27000.00000 0 -9673961.371 7855716.967 22259957.244 10 0 59943 27900.00000 0 -12185929.355 6907514.657 21314318.028 10 0 59943 28800.00000 0 -14623406.828 6179958.324 19954597.558 10 0 59943 29700.00000 0 -16920470.218 5669861.586 18206938.367 10 0 59943 30600.00000 0 -19014454.013 5362307.469 16105071.891 10 0 59943 31500.00000 0 -20848404.770 5231457.058 13689681.255 10 0 59943 32400.00000 0 -22373316.002 5241833.264 11007623.237 10 0 59943 33300.00000 0 -23550049.272 5350026.194 8111023.293 10 0 59943 34200.00000 0 -24350859.316 5506748.169 5056260.763 10 0 59943 35100.00000 0 -24760457.501 5659150.853 1902864.021 10 0 59943 36000.00000 0 -24776567.283 5753305.074 -1287662.136 10 0 59943 36900.00000 0 -24409947.061 5736736.382 -4453052.605 10 0 59943 37800.00000 0 -23683878.797 5560906.466 -7531516.056 10 0 59943 38700.00000 0 -22633143.999 5183532.641 -10462960.884 10 0 59943 39600.00000 0 -21302530.950 4570644.511 -13190186.833 10 0 59943 40500.00000 0 -19744937.440 3698288.318 -15660017.106 10 0 59943 41400.00000 0 -18019150.655 2553804.919 -17824347.281 10 0 59943 42300.00000 0 -16187399.655 1136626.021 -19641089.324 10 0 59943 43200.00000 0 -14312785.217 -541445.707 -21074991.835 10 0 59943 44100.00000 0 -12456696.475 -2456484.711 -22098320.595 10 0 59943 45000.00000 0 -10676323.792 -4573208.057 -22691386.751 10 0 59943 45900.00000 0 -9022372.273 -6846225.723 -22842913.498 10 0 59943 46800.00000 0 -7537071.136 -9221722.579 -22550235.584 10 0 59943 47700.00000 0 -6252560.931 -11639500.994 -21819329.388 10 0 59943 48600.00000 0 -5189724.042 -14035298.276 -20664674.712 10 0 59943 49500.00000 0 -4357504.818 -16343282.148 -19108952.596 10 0 59943 50400.00000 0 -3752744.997 -18498620.401 -17182586.463 10 0 59943 51300.00000 0 -3360538.300 -20440018.389 -14923136.690 10 0 59943 52200.00000 0 -3155086.558 -22112119.815 -12374561.184 10 0 59943 53100.00000 0 -3101019.066 -23467672.180 -9586356.896 10 0 59943 54000.00000 0 -3155117.755 -24469368.487 -6612599.102 10 0 59943 54900.00000 0 -3268374.401 -25091290.272 -3510896.942 10 0 59943 55800.00000 0 -3388292.594 -25319893.614 -341285.152 10 0 59943 56700.00000 0 -3461337.432 -25154498.705 2834927.236 10 0 59943 57600.00000 0 -3435430.124 -24607263.908 5956329.806 10 0 59943 58500.00000 0 -3262383.090 -23702646.333 8962583.570 10 0 59943 59400.00000 0 -2900173.772 -22476371.925 11795572.204 10 0 59943 60300.00000 0 -2314962.123 -20973957.914 14400510.766 10 0 59943 61200.00000 0 -1482767.306 -19248848.706 16726991.687 10 0 59943 62100.00000 0 -390733.078 -17360241.884 18729949.118 10 0 59943 63000.00000 0 962071.984 -15370693.513 20370524.102 10 0 59943 63900.00000 0 2564354.248 -13343600.977 21616814.673 10 0 59943 64800.00000 0 4392809.397 -11340666.545 22444496.920 10 0 59943 65700.00000 0 6412845.002 -9419445.810 22837305.122 10 0 59943 66600.00000 0 8579784.054 -7631081.982 22787361.244 10 0 59943 67500.00000 0 10840502.373 -6018319.628 22295346.579 10 0 59943 68400.00000 0 13135434.706 -4613880.428 21370510.857 10 0 59943 69300.00000 0 15400868.507 -3439268.960 20030516.908 10 0 59943 70200.00000 0 17571431.923 -2504059.055 18301121.949 10 0 59943 71100.00000 0 19582673.592 -1805691.502 16215699.531 10 0 59943 72000.00000 0 21373627.008 -1329792.679 13814609.525 10 0 59943 72900.00000 0 22889251.988 -1051001.651 11144426.666 10 0 59943 73800.00000 0 24082649.992 -934271.564 8257041.412 10 0 59943 74700.00000 0 24916958.789 -936590.663 5208650.053 10 0 59943 75600.00000 0 25366845.039 -1009049.793 2058653.767 10 0 59943 76500.00000 0 25419530.092 -1099167.819 -1131511.262 10 0 59943 77400.00000 0 25075304.117 -1153374.825 -4299588.396 10 0 59943 78300.00000 0 24347505.702 -1119545.603 -7383734.361 10 0 59943 79200.00000 0 23261967.171 -949473.531 -10323746.182 10 0 59943 80100.00000 0 21855949.113 -601177.324 -13062255.070 10 0 59943 81000.00000 0 20176609.812 -40940.450 -15545862.007 10 0 59943 81900.00000 0 18279075.297 755005.304 -17726191.239 10 0 59943 82800.00000 0 16224192.911 1799224.900 -19560839.905 10 0 59943 83700.00000 0 14076064.507 3092307.815 -21014204.741 10 0 59943 84600.00000 0 11899464.345 4622611.524 -22058169.791 10 0 59943 85500.00000 0 9757251.093 6366531.335 -22672642.291 10 0 59944 0.00000 0 7707882.956 8289284.606 -22845927.436 10 0 59944 900.00000 0 5803138.510 10346176.733 -22574936.149 10 0 59944 1800.00000 0 4086140.256 12484292.384 -21865223.374 10 0 59944 2700.00000 0 2589757.983 14644544.015 -20730858.134 10 0 59944 3600.00000 0 1335458.991 16763988.985 -19194129.194 10 0 59944 4500.00000 0 332649.321 18778319.411 -17285093.680 10 0 59944 5400.00000 0 -421469.428 20624420.982 -15040978.566 10 0 59944 6300.00000 0 -941524.728 22242894.702 -12505447.491 10 0 59944 7200.00000 0 -1253097.771 23580437.424 -9727747.733 10 0 59944 8100.00000 0 -1391387.241 24591983.250 -6761754.082 10 0 59944 9000.00000 0 -1399470.215 25242518.043 -3664928.023 10 0 59944 9900.00000 0 -1326234.468 25508492.873 -497212.111 10 0 59944 10800.00000 0 -1224069.780 25378778.980 2680119.725 10 0 59944 11700.00000 0 -1146415.450 24855125.590 5805634.550 10 0 59944 12600.00000 0 -1145266.847 23952102.442 8818913.745 10 0 59944 13500.00000 0 -1268745.304 22696529.820 11661705.809 10 0 59944 14400.00000 0 -1558832.922 21126419.810 14279037.641 10 0 59944 15300.00000 0 -2049366.910 19289472.343 16620264.057 10 0 59944 16200.00000 0 -2764377.560 17241187.600 18640036.557 10 0 59944 17100.00000 0 -3716839.876 15042671.895 20299173.747 10 0 59944 18000.00000 0 -4907892.065 12758226.652 21565417.403 10 0 59944 18900.00000 0 -6326555.148 10452818.924 22414060.135 10 0 59944 19800.00000 0 -7949967.616 8189536.833 22828432.665 10 0 59944 20700.00000 0 -9744127.852 6027134.286 22800240.854 10 0 59944 21600.00000 0 -11665116.325 4017765.890 22329745.196 10 0 59944 22500.00000 0 -13660749.509 2205005.648 21425777.927 10 0 59944 23400.00000 0 -15672599.277 622231.832 20105595.733 10 0 59944 24300.00000 0 -17638295.852 -708554.319 18394568.958 10 0 59944 25200.00000 0 -19494019.839 -1777426.078 16325711.216 10 0 59944 26100.00000 0 -21177080.006 -2586714.755 13939056.614 10 0 59944 27000.00000 0 -22628469.007 -3150670.690 11280894.953 10 0 59944 27900.00000 0 -23795289.182 -3494615.255 8402878.502 10 0 59944 28800.00000 0 -24632945.105 -3653619.179 5361017.119 10 0 59944 29700.00000 0 -25107008.871 -3670763.192 2214581.287 10 0 59944 30600.00000 0 -25194677.471 -3595055.306 -975064.908 10 0 59944 31500.00000 0 -24885758.823 -3479094.282 -4145676.726 10 0 59944 32400.00000 0 -24183143.150 -3376580.271 -7235362.249 10 0 59944 33300.00000 0 -23102738.662 -3339780.524 -10183810.260 10 0 59944 34200.00000 0 -21672873.732 -3417060.156 -12933486.338 10 0 59944 35100.00000 0 -19933190.923 -3650585.160 -15430771.846 10 0 59944 36000.00000 0 -17933080.239 -4074297.216 -17627021.949 10 0 59944 36900.00000 0 -15729718.757 -4712247.787 -19479520.753 10 0 59944 37800.00000 0 -13385800.528 -5577363.152 -20952314.391 10 0 59944 38700.00000 0 -10967053.373 -6670693.112 -22016905.846 10 0 59944 39600.00000 0 -8539647.914 -7981175.033 -22652798.514 10 0 59944 40500.00000 0 -6167607.879 -9485922.677 -22847879.028 10 0 59944 41400.00000 0 -3910329.930 -11151026.911 -22598633.327 10 0 59944 42300.00000 0 -1820315.963 -12932833.660 -21910193.388 10 0 59944 43200.00000 0 58789.029 -14779644.605 -20796215.435 10 0 59944 44100.00000 0 1693773.788 -16633768.653 -19278593.620 10 0 59944 45000.00000 0 3062989.145 -18433837.804 -17387016.186 10 0 59944 45900.00000 0 4156983.865 -20117290.535 -15158373.953 10 0 59944 46800.00000 0 4978624.573 -21622919.188 -12636033.452 10 0 59944 47700.00000 0 5542697.781 -22893375.591 -9868989.419 10 0 59944 48600.00000 0 5875013.476 -23877531.273 -6910913.323 10 0 59944 49500.00000 0 6011050.144 -24532594.907 -3819116.242 10 0 59944 50400.00000 0 5994199.794 -24825899.852 -653445.910 10 0 59944 51300.00000 0 5873687.788 -24736288.446 2524861.334 10 0 59944 52200.00000 0 5702255.393 -24255036.374 5654352.359 10 0 59944 53100.00000 0 5533702.432 -23386279.318 8674531.062 10 0 59944 54000.00000 0 5420392.915 -22146924.535 11527012.711 10 0 59944 54900.00000 0 5410827.898 -20566050.919 14156637.790 10 0 59944 55800.00000 0 5547386.852 -18683822.036 16512525.016 10 0 59944 56700.00000 0 5864331.949 -16549956.237 18549044.522 10 0 59944 57600.00000 0 6386158.885 -14221816.026 20226693.487 10 0 59944 58500.00000 0 7126363.787 -11762194.261 21512858.153 10 0 59944 59400.00000 0 8086678.843 -9236887.199 22382448.097 10 0 59944 60300.00000 0 9256810.306 -6712153.076 22818390.617 10 0 59944 61200.00000 0 10614691.947 -4252160.026 22811975.337 10 0 59944 62100.00000 0 12127245.981 -1916527.750 22363041.541 10 0 59944 63000.00000 0 13751622.470 241936.003 21480003.313 10 0 59944 63900.00000 0 15436868.149 2179210.446 20179710.306 10 0 59944 64800.00000 0 17125957.415 3861666.123 18487144.876 10 0 59944 65700.00000 0 18758102.491 5267231.282 16434959.365 10 0 59944 66600.00000 0 20271247.230 6386070.710 14062860.558 10 0 59944 67500.00000 0 21604640.506 7220747.773 11416851.520 10 0 59944 68400.00000 0 22701380.719 7785862.039 8548344.268 10 0 59944 69300.00000 0 23510823.263 8107177.155 5513159.920 10 0 59944 70200.00000 0 23990747.880 8220275.672 2370435.735 10 0 59944 71100.00000 0 24109192.376 8168798.127 -818539.031 10 0 59944 72000.00000 0 23845873.133 8002341.895 -3991534.381 10 0 59944 72900.00000 0 23193130.349 7774110.528 -7086612.624 10 0 59944 73800.00000 0 22156356.458 7538415.307 -10043357.102 10 0 59944 74700.00000 0 20753888.522 7348137.320 -12804070.393 10 0 59944 75600.00000 0 19016368.717 7252260.155 -15314916.643 10 0 59944 76500.00000 0 16985600.029 7293580.022 -17526984.050 10 0 59944 77400.00000 0 14712946.145 7506692.156 -19397245.505 10 0 59944 78300.00000 0 12257343.851 7916340.038 -20889398.072 10 0 59944 79200.00000 0 9683012.639 8536197.910 -21974564.921 10 0 59944 80100.00000 0 7056958.630 9368138.048 -22631846.567 10 0 59944 81000.00000 0 4446378.068 10402013.184 -22848711.750 10 0 59944 81900.00000 0 1916069.068 11615962.382 -22621221.776 10 0 59944 82800.00000 0 -474040.649 12977226.308 -21954085.571 10 0 59944 83700.00000 0 -2671148.100 14443436.459 -20860546.107 10 0 59944 84600.00000 0 -4631519.306 15964323.149 -19362102.031 10 0 59944 85500.00000 0 -6322044.748 17483769.756 -17488071.391 10 0 59945 0.00000 0 -7721343.949 18942126.538 -15275007.353 10 0 59945 900.00000 0 -8820376.878 20278687.788 -12765976.865 10 0 59945 1800.00000 0 -9622537.902 21434226.944 -10009719.947 10 0 59945 2700.00000 0 -10143233.881 22353486.854 -7059702.146 10 0 59945 3600.00000 0 -10408964.684 22987519.917 -3973081.367 10 0 59945 4500.00000 0 -10455947.538 23295782.105 -809607.671 10 0 59945 5400.00000 0 -10328344.289 23247894.248 2369523.090 10 0 59945 6300.00000 0 -10076166.844 22824997.966 5502840.466 10 0 59945 7200.00000 0 -9752949.030 22020650.328 8529773.683 10 0 59945 8100.00000 0 -9413282.472 20841220.273 11391807.489 10 0 59945 9000.00000 0 -9110319.438 19305770.145 14033598.518 10 0 59945 9900.00000 0 -8893346.791 17445426.744 16404031.797 10 0 59945 10800.00000 0 -8805532.190 15302266.949 18457198.287 10 0 59945 11700.00000 0 -8881936.622 12927762.698 20153275.728 10 0 59945 12600.00000 0 -9147876.499 10380848.038 21459296.573 10 0 59945 13500.00000 0 -9617704.384 7725686.326 22349788.820 10 0 59945 14400.00000 0 -10294060.426 5029227.962 22807277.499 10 0 59945 15300.00000 0 -11167627.439 2358657.894 22822636.771 10 0 59945 16200.00000 0 -12217401.969 -221163.088 22395285.082 10 0 59945 17100.00000 0 -13411472.485 -2650158.531 21533218.275 10 0 59945 18000.00000 0 -14708274.672 -4875296.615 20252878.382 10 0 59945 18900.00000 0 -16058273.750 -6852556.939 18578858.673 10 0 59945 19800.00000 0 -17406005.467 -8548521.738 16543448.606 10 0 59945 20700.00000 0 -18692391.656 -9941524.433 14186025.535 10 0 59945 21600.00000 0 -19857233.908 -11022306.685 11552303.250 10 0 59945 22500.00000 0 -20841780.511 -11794155.523 8693450.623 10 0 59945 23400.00000 0 -21591257.698 -12272513.959 5665096.851 10 0 59945 24300.00000 0 -22057256.967 -12484081.157 2526242.589 10 0 59945 25200.00000 0 -22199875.680 -12465440.210 -661901.214 10 0 59945 26100.00000 0 -21989518.190 -12261272.236 -3837122.823 10 0 59945 27000.00000 0 -21408279.066 -11922233.681 -6937442.265 10 0 59945 27900.00000 0 -20450847.902 -11502588.605 -9902340.840 10 0 59945 28800.00000 0 -19124895.865 -11057698.459 -12673961.381 10 0 59945 29700.00000 0 -17450926.691 -10641478.133 -15198253.846 10 0 59945 30600.00000 0 -15461598.022 -10303928.328 -17426042.184 10 0 59945 31500.00000 0 -13200541.955 -10088850.707 -19313990.386 10 0 59945 32400.00000 0 -10720735.119 -10031843.974 -20825448.252 10 0 59945 33300.00000 0 -8082487.639 -10158666.398 -21931160.366 10 0 59945 34200.00000 0 -5351136.380 -10484034.124 -22609824.956 10 0 59945 35100.00000 0 -2594539.786 -11010905.450 -22848492.831 10 0 59945 36000.00000 0 119520.607 -11730280.274 -22642800.025 10 0 59945 36900.00000 0 2725923.600 -12621521.789 -21997031.227 10 0 59945 37800.00000 0 5164669.776 -13653185.389 -20924014.510 10 0 59945 38700.00000 0 7383119.867 -14784318.486 -19444850.988 10 0 59945 39600.00000 0 9337918.740 -15966175.330 -17588486.170 10 0 59945 40500.00000 0 10996527.418 -17144273.901 -15391132.548 10 0 59945 41400.00000 0 12338302.176 -18260708.024 -12895555.488 10 0 59945 42300.00000 0 13355078.651 -19256617.553 -10150236.950 10 0 59945 43200.00000 0 14051239.610 -20074713.348 -7208433.483 10 0 59945 44100.00000 0 14443266.283 -20661751.821 -4127146.672 10 0 59945 45000.00000 0 14558794.327 -20970856.143 -966025.756 10 0 59945 45900.00000 0 14435215.791 -20963587.866 2213776.985 10 0 59945 46800.00000 0 14117886.896 -20611683.098 5350776.722 10 0 59945 47700.00000 0 13658017.356 -19898381.294 8384330.739 10 0 59945 48600.00000 0 13110329.859 -18819291.509 11255795.722 10 0 59945 49500.00000 0 12530587.509 -17382759.863 13909646.597 10 0 59945 50400.00000 0 11973092.224 -15609722.349 16294536.485 10 0 59945 51300.00000 0 11488258.208 -13533048.064 18364278.603 10 0 59945 52200.00000 0 11120361.447 -11196398.521 20078732.297 10 0 59945 53100.00000 0 10905559.035 -8652648.562 21404576.908 10 0 59945 54000.00000 0 10870261.197 -5961932.048 22315959.171 10 0 59945 54900.00000 0 11029924.584 -3189390.963 22795001.808 10 0 59945 55800.00000 0 11388318.348 -402718.913 22832163.167 10 0 59945 56700.00000 0 11937295.247 2330401.329 22426440.202 10 0 59945 57600.00000 0 12657079.310 4944861.776 21585409.597 10 0 59945 58500.00000 0 13517060.265 7380589.444 20325104.603 10 0 59945 59400.00000 0 14477063.696 9584801.328 18669728.029 10 0 59945 60300.00000 0 15489045.773 11513960.399 16651204.861 10 0 59945 61200.00000 0 16499143.025 13135350.579 14308581.253 10 0 59945 62100.00000 0 17449992.020 14428204.107 11687279.744 10 0 59945 63000.00000 0 18283221.596 15384333.130 8838223.891 10 0 59945 63900.00000 0 18942012.025 16008237.967 5816848.616 10 0 59945 64800.00000 0 19373611.873 16316686.854 2682015.463 10 0 59945 65700.00000 0 19531704.294 16337784.593 -505145.566 10 0 59945 66600.00000 0 19378520.428 16109569.699 -3682443.680 10 0 59945 67500.00000 0 18886608.079 15678200.307 -6787859.289 10 0 59945 68400.00000 0 18040178.473 15095807.086 -9760774.217 10 0 59945 69300.00000 0 16835972.177 14418106.020 -12543173.942 10 0 59945 70200.00000 0 15283606.090 13701874.384 -15080796.393 10 0 59945 71100.00000 0 13405385.965 13002399.011 -17324203.182 10 0 59945 72000.00000 0 11235592.128 12371006.884 -19229751.054 10 0 59945 72900.00000 0 8819268.742 11852784.058 -20760443.960 10 0 59945 73800.00000 0 6210568.085 11484580.305 -21886649.081 10 0 59945 74700.00000 0 3470720.202 11293383.990 -22586663.315 10 0 59945 75600.00000 0 665713.701 11295135.318 -22847120.248 10 0 59945 76500.00000 0 -2136214.866 11494026.939 -22663231.053 10 0 59945 77400.00000 0 -4867178.014 11882319.849 -22038856.266 10 0 59945 78300.00000 0 -7462212.924 12440680.540 -20986408.737 10 0 59945 79200.00000 0 -9861729.392 13139023.365 -19526591.310 10 0 59945 80100.00000 0 -12013729.699 13937820.948 -17687975.795 10 0 59945 81000.00000 0 -13875710.190 14789826.073 -15506432.659 10 0 59945 81900.00000 0 -15416167.904 15642131.678 -13024423.397 10 0 59945 82800.00000 0 -16615652.198 16438481.757 -10290169.936 10 0 59945 83700.00000 0 -17467320.391 17121735.980 -7356717.469 10 0 59945 84600.00000 0 -17976976.980 17636384.775 -4280908.784 10 0 59945 85500.00000 0 -18162597.152 17931009.874 -1122289.736 99